Location: Newark
(34.6283°N, 36.0776°E)
Time: 05:49:02
(UTC+00:00)

A-11 Canister half - All Passes

Search period start: 22 September 2019 00:00
Search period end: 02 October 2019 00:00
Orbit: 1513 x 1686 km, 47.2° (Epoch: 19 September)

Date Brightness Start Highest point End Pass type
(mag) Time Alt. Az. Time Alt. Az. Time Alt. Az.
22 Sep - 04:17:31 10° SSE 04:23:44 20° SE 04:29:49 10° E daylight
22 Sep - 06:18:08 10° SW 06:27:32 75° SE 06:36:46 10° ENE daylight
22 Sep - 08:24:03 10° W 08:32:57 47° NNW 08:41:48 10° NE daylight
22 Sep - 10:31:15 10° WNW 10:39:43 38° N 10:48:15 10° ENE daylight
22 Sep - 12:36:48 10° NW 12:46:01 66° NNE 12:55:26 10° ESE daylight
22 Sep - 14:42:01 10° WNW 14:50:39 44° SW 14:59:31 10° SSE daylight
23 Sep - 03:55:08 10° SSE 04:00:53 18° SE 04:06:32 10° E daylight
23 Sep - 05:55:15 10° SW 06:04:39 71° SE 06:13:50 10° ENE daylight
23 Sep - 08:01:00 10° W 08:09:57 49° NNW 08:18:51 10° NE daylight
23 Sep - 10:08:14 10° WNW 10:16:42 38° N 10:25:11 10° ENE daylight
23 Sep - 12:13:53 10° NW 12:23:04 63° NNE 12:32:25 10° ESE daylight
23 Sep - 14:19:03 10° WNW 14:27:47 47° SW 14:36:45 10° SSE daylight
24 Sep - 03:32:50 10° SSE 03:38:03 16° SE 03:43:11 10° E daylight
24 Sep - 05:32:23 10° SW 05:41:46 67° SE 05:50:55 10° ENE daylight
24 Sep - 07:37:56 10° W 07:46:58 51° NNW 07:55:55 10° NE daylight
24 Sep - 09:45:13 10° WNW 09:53:40 38° N 10:02:08 10° ENE daylight
24 Sep - 11:50:59 10° NW 12:00:06 61° NNE 12:09:23 10° ESE daylight
24 Sep - 13:56:05 10° WNW 14:04:55 50° SW 14:13:58 10° SSE daylight
25 Sep - 03:10:38 10° SSE 03:15:13 14° ESE 03:19:44 10° E daylight
25 Sep - 05:09:31 10° SW 05:18:52 63° SE 05:27:59 10° ENE daylight
25 Sep - 07:14:53 10° W 07:24:00 53° NNW 07:32:59 10° NE daylight
25 Sep - 09:22:12 10° WNW 09:30:38 37° N 09:39:05 10° ENE daylight
25 Sep - 11:28:03 10° NW 11:37:09 58° NNE 11:46:21 10° ESE daylight
25 Sep - 13:33:08 10° WNW 13:42:02 54° SW 13:51:11 10° SSE daylight
25 Sep - 15:43:49 10° WSW 15:45:32 11° WSW 15:47:16 10° SW visible
26 Sep - 02:48:36 10° SSE 02:52:23 13° ESE 02:56:08 10° E visible
26 Sep - 04:46:41 10° SSW 04:55:59 59° SE 05:05:03 10° ENE daylight
26 Sep - 06:51:50 10° WSW 07:01:01 55° NNW 07:10:03 10° NE daylight
26 Sep - 08:59:09 10° WNW 09:07:37 37° N 09:16:03 10° ENE daylight
26 Sep - 11:05:08 10° NW 11:14:11 56° NNE 11:23:20 10° ESE daylight
26 Sep - 13:10:10 10° WNW 13:19:09 57° SW 13:28:21 10° SSE daylight
26 Sep - 15:19:32 10° WSW 15:22:42 12° WSW 15:25:54 10° SW daylight
27 Sep - 02:26:52 10° SE 02:29:33 11° ESE 02:32:14 10° ESE visible
27 Sep - 04:23:51 10° SSW 04:33:07 56° SE 04:42:05 10° ENE daylight
27 Sep - 06:28:47 10° WSW 06:38:03 57° NNW 06:47:08 10° NE daylight
27 Sep - 08:36:07 10° WNW 08:44:35 37° N 08:53:01 10° ENE daylight
27 Sep - 10:42:12 10° NW 10:51:13 54° NNE 11:00:17 10° E daylight
27 Sep - 12:47:14 10° WNW 12:56:17 61° SW 13:05:31 10° SE daylight
27 Sep - 14:55:48 10° W 14:59:52 14° WSW 15:04:01 10° SSW daylight
28 Sep - 04:01:02 10° SSW 04:10:13 52° SE 04:19:08 10° ENE daylight
28 Sep - 06:05:45 10° WSW 06:15:05 60° NNW 06:24:13 10° NE daylight
28 Sep - 08:13:04 10° WNW 08:21:33 38° N 08:29:59 10° ENE daylight
28 Sep - 10:19:16 10° NW 10:28:14 52° NNE 10:37:15 10° E daylight
28 Sep - 12:24:17 10° WNW 12:33:23 65° SW 12:42:40 10° SE daylight
28 Sep - 14:32:16 10° W 14:37:02 15° WSW 14:41:53 10° SSW daylight
29 Sep - 03:38:14 10° SSW 03:47:20 49° SE 03:56:11 10° ENE daylight
29 Sep - 05:42:43 10° WSW 05:52:07 62° NNW 06:01:18 10° NE daylight
29 Sep - 07:50:01 10° WNW 07:58:32 38° N 08:06:58 10° ENE daylight
29 Sep - 09:56:20 10° NW 10:05:15 50° NNE 10:14:12 10° E daylight
29 Sep - 12:01:21 10° WNW 12:10:30 69° SW 12:19:49 10° SE daylight
29 Sep - 14:08:52 10° W 14:14:13 17° SW 14:19:38 10° SSW daylight
30 Sep - 03:15:27 10° SSW 03:24:28 45° SE 03:33:11 10° ENE daylight
30 Sep - 05:19:42 10° WSW 05:29:09 65° NNW 05:38:24 10° NE daylight
30 Sep - 07:26:56 10° WNW 07:35:30 38° N 07:43:58 10° ENE daylight
30 Sep - 09:33:23 10° NW 09:42:16 48° NNE 09:51:09 10° E daylight
30 Sep - 11:38:25 10° WNW 11:47:37 73° SW 11:56:56 10° SE daylight
30 Sep - 13:45:33 10° W 13:51:23 19° SW 13:57:18 10° SSW daylight
01 Oct - 02:52:41 10° SSW 03:01:35 42° SE 03:10:13 10° ENE visible
01 Oct - 04:56:40 10° WSW 05:06:12 68° NNW 05:15:29 10° NE daylight
01 Oct - 07:03:52 10° WNW 07:12:28 39° N 07:20:58 10° ENE daylight
01 Oct - 09:10:25 10° NW 09:19:16 46° NNE 09:28:06 10° E daylight
01 Oct - 11:15:29 10° WNW 11:24:43 78° SW 11:34:03 10° SE daylight
01 Oct - 13:22:18 10° W 13:28:33 20° SW 13:34:53 10° S daylight
